Voltar ao catálogo

FENGYUN 1C DEB

AtivoSSO
NORAD 33639·DEBRIS·🇨🇳 China

Lançado May 10, 1999 de Taiyuan Satellite Launch Center

Loading…

Próximas Passagens (próximas 24 horas)

TLE

AtualizadoSource: Space-Track

Época: Sep 13, 2026, 12:33 UTC

1 33639U 99025DDY 26256.52297868  .00004242  00000-0  12449-2 0  9991
2 33639  98.7097 358.1841 0048756 186.4667 173.5899 14.43664228645438

Acompanhe FENGYUN 1C DEB em tempo real com AllMySat

Download on the App Store